Location: Newark
(46.7000°N, 60.6000°W)
Time: 20:18:29
(UTC+00:00)

ISS - Visible Passes

Search period start: 21 September 2020 00:00
Search period end: 01 October 2020 00:00
Orbit: 419 x 420 km, 51.6° (Epoch: 21 September)

Date Brightness Start Highest point End Pass type
(mag) Time Alt. Az. Time Alt. Az. Time Alt. Az.
21 Sep -2.5 00:20:02 10° W 00:22:47 41° NW 00:22:47 41° NW visible
21 Sep -3.3 23:32:30 10° W 23:35:50 58° NNW 23:37:23 28° NE visible
22 Sep -0.4 01:09:56 10° WNW 01:10:21 13° WNW 01:10:21 13° WNW visible
22 Sep -3.7 22:45:01 10° WSW 22:48:23 79° NNW 22:51:47 10° ENE visible
23 Sep -2.0 00:22:22 10° WNW 00:24:51 31° NNW 00:24:51 31° NNW visible
23 Sep -2.6 23:34:47 10° W 23:37:59 38° N 23:39:17 26° NE visible
24 Sep -0.2 01:12:05 10° WNW 01:12:14 11° WNW 01:12:14 11° WNW visible
24 Sep -2.8 22:47:12 10° W 22:50:27 45° NNW 22:53:39 10° ENE visible
25 Sep -1.7 00:24:35 10° WNW 00:26:36 27° NW 00:26:36 27° NW visible
25 Sep -2.5 23:37:03 10° WNW 23:40:10 33° N 23:40:57 29° NNE visible
26 Sep -2.5 22:49:27 10° WNW 22:52:35 34° N 22:55:16 13° ENE visible
27 Sep -1.4 00:26:35 10° WNW 00:28:13 24° NW 00:28:13 24° NW visible
27 Sep -2.8 23:39:06 10° WNW 23:42:18 38° N 23:42:31 38° NNE visible
28 Sep -2.6 22:51:34 10° WNW 22:54:43 35° N 22:56:49 17° ENE visible
29 Sep -1.2 00:28:27 10° WNW 00:29:46 22° WNW 00:29:46 22° WNW visible
29 Sep -3.3 23:40:58 10° WNW 23:44:04 55° N 23:44:04 55° N visible
30 Sep -3.1 22:53:29 10° WNW 22:56:46 45° NNE 22:58:23 24° ENE visible
